Notices

What's New in latest Release from April 7th, 2021:

- Updated Glossary, including Speed of Maximum Gust, and Total Hourly Precipitation

- Updated national and regional climate services offices contacts and prices information

- Addition of station inventory lists for 1981-2010, 1971-2000, and 1961-1990 Normals.

If you haven't already, please take our survey and provide feedback about our website: https://eccc.sondage-survey.ca/f/LanguageSelection.aspx?s=442ca660-fcf1-47c0-95a9-59707d6fd709

Hourly Data Report for January 06, 2006

TORONTO CITY
ONTARIO

43°40'00.000" N
79°24'00.000" W
112.50 m
6158355
71508
XTO

Download Data

Hourly Data (January 2006)
Hourly Data Report for January 6, 2006
TIME
LST
Temp Definition
°C
Dew Point Definition
°C
Rel Hum Definition
%
Precip. Amount Definition
mm

Wind Dir Definition
10's deg

Wind Spd Definition
km/h
Visibility Definition
km
Stn Press Definition
kPa
Hmdx Definition


Wind Chill Definition


Weather Definition


00:00 -1.6 -5.4 75   LegendMM LegendMM   99.55     LegendNANA
01:00 -2.4 -5.8 77   LegendMM LegendMM   99.59     LegendNANA
02:00 -3.4 -7.2 75   LegendMM LegendMM   99.69     LegendNANA
03:00 -4.0 -7.7 75   LegendMM LegendMM   99.76     LegendNANA
04:00 -4.6 -7.8 78   LegendMM LegendMM   99.79     LegendNANA
05:00 -5.7 -10.0 72   LegendMM LegendMM   99.82     LegendNANA
06:00 -6.6 -10.7 73   LegendMM LegendMM   99.86     LegendNANA
07:00 -7.1 -11.2 72   LegendMM LegendMM   99.94     LegendNANA
08:00 -7.8 -12.5 69   LegendMM LegendMM   99.98     LegendNANA
09:00 -8.1 -12.7 69   LegendMM LegendMM   100.02     LegendNANA
10:00 -7.1 -12.8 64   LegendMM LegendMM   100.04     LegendNANA
11:00 -5.7 -11.6 63   LegendMM LegendMM   100.01     LegendNANA
12:00 -6.2 -11.5 66   LegendMM LegendMM   99.92     LegendNANA
13:00 -5.3 -11.5 62   LegendMM LegendMM   99.86     LegendNANA
14:00 -4.7 -11.1 61   LegendMM LegendMM   99.83     LegendNANA
15:00 -4.7 -10.6 63   LegendMM LegendMM   99.86     LegendNANA
16:00 -4.8 -10.2 66   LegendMM LegendMM   99.91     LegendNANA
17:00 -5.0 -9.4 71   LegendMM LegendMM   99.94     LegendNANA
18:00 -5.4 -11.2 64   LegendMM LegendMM   99.95     LegendNANA
19:00 -5.9 -11.1 67   LegendMM LegendMM   99.93     LegendNANA
20:00 -6.0 -10.9 68   LegendMM LegendMM   99.91     LegendNANA
21:00 -6.0 -10.8 69   LegendMM LegendMM   99.88     LegendNANA
22:00 -5.8 -10.9 67   LegendMM LegendMM   99.86     LegendNANA
23:00 -6.0 -11.1 67   LegendMM LegendMM   99.81     LegendNANA

Notes on Data Quality.

Legend

  • E = Estimated
  • M = Missing
  • NA = Not Available*
  • [empty] = Indicates an unobserved value
Date modified: